TimeEDT,TemperatureF,Dew PointF,Humidity,Sea Level PressureIn,VisibilityMPH,Wind Direction,Wind SpeedMPH,Gust SpeedMPH,PrecipitationIn,Events,Conditions,WindDirDegrees,DateUTC
12:52 AM,41.0,36.0,82,30.18,10.0,WSW,4.6,-,N/A,,Overcast,250,2012-10-08 04:52:00
1:52 AM,36.0,34.0,93,30.19,10.0,Calm,Calm,-,N/A,,Clear,0,2012-10-08 05:52:00
2:52 AM,37.9,34.0,86,30.20,10.0,Calm,Calm,-,N/A,,Overcast,0,2012-10-08 06:52:00
3:52 AM,35.1,33.1,92,30.20,10.0,Calm,Calm,-,N/A,,Mostly Cloudy,0,2012-10-08 07:52:00
4:52 AM,32.0,30.9,96,30.20,9.0,Calm,Calm,-,N/A,,Clear,0,2012-10-08 08:52:00
5:52 AM,32.0,30.0,92,30.21,9.0,Calm,Calm,-,N/A,,Clear,0,2012-10-08 09:52:00
6:52 AM,30.0,28.9,96,30.22,9.0,Calm,Calm,-,N/A,,Clear,0,2012-10-08 10:52:00
7:52 AM,32.0,28.9,88,30.23,10.0,Calm,Calm,-,N/A,,Clear,0,2012-10-08 11:52:00
8:52 AM,36.0,34.0,93,30.24,10.0,Calm,Calm,-,N/A,,Clear,0,2012-10-08 12:52:00
9:52 AM,43.0,36.0,76,30.24,10.0,Calm,Calm,-,N/A,,Clear,0,2012-10-08 13:52:00
10:52 AM,46.9,30.0,52,30.24,10.0,SW,5.8,-,N/A,,Clear,220,2012-10-08 14:52:00
11:52 AM,48.9,25.0,39,30.24,10.0,SW,8.1,-,N/A,,Clear,220,2012-10-08 15:52:00
12:52 PM,50.0,26.1,39,30.23,10.0,South,5.8,-,N/A,,Clear,180,2012-10-08 16:52:00
1:52 PM,52.0,26.1,37,30.20,10.0,SW,8.1,-,N/A,,Clear,230,2012-10-08 17:52:00
2:52 PM,52.0,25.0,35,30.17,10.0,SW,8.1,19.6,N/A,,Clear,230,2012-10-08 18:52:00
3:52 PM,54.0,26.1,34,30.16,10.0,SW,10.4,-,N/A,,Clear,220,2012-10-08 19:52:00
4:52 PM,53.1,26.1,35,30.14,10.0,SSW,5.8,-,N/A,,Clear,200,2012-10-08 20:52:00
5:52 PM,52.0,26.1,37,30.14,10.0,South,6.9,-,N/A,,Clear,180,2012-10-08 21:52:00
6:04 PM,53.6,26.6,35,30.13,10.0,SSW,5.8,-,N/A,,Partly Cloudy,200,2012-10-08 22:04:00
6:52 PM,48.9,28.9,46,30.14,10.0,South,3.5,-,N/A,,Clear,180,2012-10-08 22:52:00
7:52 PM,42.8,32.0,66,30.12,10.0,Calm,Calm,-,N/A,,Clear,0,2012-10-08 23:52:00
8:52 PM,39.0,33.1,79,30.14,10.0,SSE,3.5,-,N/A,,Clear,150,2012-10-09 00:52:00
9:52 PM,37.0,32.0,82,30.15,10.0,Calm,Calm,-,N/A,,Clear,0,2012-10-09 01:52:00
10:52 PM,37.0,32.0,82,30.17,10.0,Calm,Calm,-,N/A,,Clear,0,2012-10-09 02:52:00
11:52 PM,39.0,30.0,70,30.15,10.0,South,4.6,-,N/A,,Clear,190,2012-10-09 03:52:00